Location: Epalinges
(46.5518°N, 6.6683°E)
Time: 02:50:04
(UTC+00:00)

Cosmos 1271 Rocket - Pass Details

Date: 20 June 2021
Orbit: 498 x 543 km, 81.2° (Epoch: 04 August)

Event Time Altitude Azimuth Distance (km) Brightness Sun altitude
Rises 02:13:20 0° 350° (N) 2,601 7.0 -11.4°
Reaches altitude 10° 02:15:28 10° 353° (N) 1,713 6.0 -11.2°
Maximum altitude 02:19:12 72° 78° (ENE) 532 2.9 -10.8°
Drops below altitude 10° 02:22:56 10° 164° (SSE) 1,709 5.0 -10.4°
Enters shadow 02:24:42 - 166° (SSE) 2,443 5.8 -10.2°
